User: anonymous   Login
Location: Lawrence Hall of Science
(37.8785°N, 122.2415°W)
Time: 21:38:08
(UTC-07:00)
Language:

ARGOS - Orbit

View from above orbital plane
View from above orbital plane
View from above satellite
View from above satellite

Ground track
Ground track

The orbit data is extracted from the following two-line orbital elements,

1 25634U 99008A   15187.18133755  .00000029  00000-0  34629-4 0  9990
2 25634 098.7140 254.3597 0011348 098.9085 318.7189 14.19248708847473
Epoch (UTC): 06 July 2015 04:21:07
Eccentricity: 0.0011348
inclination: 98.7140°
perigee height: 820 km
apogee height: 836 km
right ascension of ascending node: 254.3597°
argument of perigee: 98.9085°
revolutions per day: 14.19248708
mean anomaly at epoch: 318.7189°
orbit number at epoch: 84747

The dashed part of the orbit path shows where the satellite is in the earth's shadow,  

DLR